Location: Courcelles
(49.2596°N, 1.7419°E)
Time: 00:05:26
(UTC+00:00)

Sich 1 Rocket - Pass Details

Date: 17 November 2025
Orbit: 611 x 646 km, 82.5° (Epoch: 05 December)

Event Time Altitude Azimuth Distance (km) Brightness Sun altitude
Rises 17:46:12 0° 163° (SSE) 2,938 7.0 -15.7°
Reaches altitude 10° 17:48:35 10° 154° (SSE) 2,037 6.1 -16.1°
Maximum altitude 17:52:39 33° 90° (E) 1,084 4.2 -16.7°
Enters shadow 17:53:28 31° 68° (ENE) 1,142 4.3 -16.9°
